{"data":{"norad_id":48440,"intl_designator":"2021-040N","name":"STARLINK-2682","alt_names":[],"object_type":"PAYLOAD","status":"ACTIVE","operator":null,"country":"US","launch_date":"2021-05-09","launch_site_code":"AFETR","launch_vehicle":null,"mission":null,"orbit_class":"UNKNOWN","rcs_meters":null,"size_class":null,"mass_kg":null,"dimensions":null,"purposes":["comms"],"wikipedia_slug":null,"has_3d_model":false,"image_url":null,"decayed_at":null,"tle_current":{"epoch":"2026-09-20T03:17:13.312032Z","epoch_age_seconds":68691,"freshness":"FRESH","line1":"1 48440U 21040N   26263.13695963  .00001656  00000+0  65089-4 0  9997","line2":"2 48440  53.1592 353.1994 0001140  90.8156 269.2976 15.31705540296476","mean_motion":15.3170554,"eccentricity":0.000114,"inclination_deg":53.1592,"raan_deg":353.1994,"arg_perigee_deg":90.8156,"mean_anomaly_deg":269.2976,"bstar":6.5089e-5,"rev_number":29647,"period_min":94.012847926371,"perigee_km":469.94271072889,"apogee_km":471.50425091852,"semimajor_km":6848.8604808237,"source":"CELESTRAK","updated_at":"2026-09-20T09:00:39.125026Z"}}}